Theta_e
294 294 295 295 295 295 295 294 286 294 295 295 298 296 298 299 299 300 299 300 300 300 299 300 300 300 301 301 301 302 302 301 301 302 302 304 309 313 314 316 317 315 315 313
295 294 295 295 295 294 295 288 293 294 295 287 287 297 299 298 297 300 301 301 300 300 300 301 299 300 301 301 301 302 303 302 301 301 305 305 308 306 305 312 314 313 318 314
295 295 295 295 295 294 294 290 286 289 295 293 296 294 296 298 299 300 299 300 300 301 302 301 300 300 301 303 303 309 305 302 301 301 305 303 301 302 301 310 309 309 310 308
294 294 294 294 294 295 294 291 289 291 289 292 297 296 297 296 298 299 300 300 301 302 303 302 298 300 303 304 305 305 303 302 302 302 303 302 302 302 302 302 304 305 302 305
293 293 294 294 294 294 294 292 291 293 294 294 294 295 296 297 298 300 301 302 302 301 304 301 301 303 303 303 303 304 303 305 304 304 303 303 303 303 303 303 303 302 302 302
294 294 294 293 293 294 293 293 293 292 291 292 294 293 296 299 302 300 301 303 302 303 302 301 301 302 302 302 303 302 303 304 304 301 304 303 303 301 303 302 302 302 302 302
293 294 294 293 293 293 293 293 294 294 293 294 295 296 297 300 300 301 300 301 302 301 302 300 300 299 300 301 301 302 302 303 302 304 304 301 301 301 302 304 304 307 303 307
294 294 294 293 292 293 294 293 293 293 289 294 296 298 297 299 298 299 300 299 300 298 299 297 300 299 300 300 299 300 302 302 299 298 302 300 300 300 306 311 311 312 308 315
294 294 293 293 293 293 294 293 293 294 294 293 296 297 296 299 298 297 298 299 298 299 295 296 299 300 301 298 300 302 302 302 302 301 302 299 302 307 307 308 311 313 313 314
293 293 293 293 294 294 294 294 294 294 296 294 295 295 297 296 297 296 297 298 299 297 291 297 299 301 301 302 302 297 306 306 304 302 297 302 303 304 308 307 313 310 312 312
293 293 293 294 294 294 294 294 294 294 295 293 293 294 295 294 294 296 295 293 296 297 301 297 300 302 304 306 304 306 307 307 306 305 300 302 307 309 311 311 310 310 311 309
293 292 292 293 294 294 294 294 294 294 294 292 294 294 295 295 295 295 295 295 299 298 298 299 299 301 303 303 306 306 306 306 307 303 302 305 307 309 310 311 308 307 307 306
293 293 293 293 293 293 294 294 294 293 294 291 291 292 294 294 295 296 297 295 297 299 298 299 298 298 300 302 305 304 305 304 308 307 307 306 308 308 309 310 308 304 307 309
291 292 292 291 294 294 293 294 293 294 292 294 292 294 295 296 296 295 295 295 296 296 297 297 297 299 299 303 303 303 304 306 306 309 306 306 307 306 306 306 307 306 302 300
291 292 293 293 293 292 294 294 294 294 293 292 292 293 294 294 294 295 295 295 294 294 299 300 300 299 301 300 302 305 306 305 305 306 305 305 305 306 306 306 303 303 301 297
291 292 293 293 293 293 294 295 294 294 294 296 294 293 294 296 297 296 295 295 295 295 296 297 300 300 301 303 304 303 302 303 303 304 306 306 308 304 302 300 298 296 294 293
291 292 293 293 293 293 293 294 295 294 294 295 294 293 294 297 297 297 297 297 297 297 299 299 298 299 301 301 300 300 299 300 302 302 305 307 306 304 299 297 294 292 290 289
292 293 293 293 294 294 295 295 297 295 295 294 295 294 297 297 298 300 298 299 299 300 301 301 302 301 302 303 301 298 296 297 298 299 300 300 301 303 302 298 295 292 289 287
294 294 293 294 294 292 295 296 296 295 295 294 294 296 296 298 301 301 302 302 301 300 300 301 302 302 304 300 297 295 293 294 294 295 295 295 296 296 299 298 295 292 288 286
296 294 292 293 293 295 295 297 294 294 294 296 296 293 294 299 299 303 300 299 300 302 302 301 303 302 298 296 293 292 291 291 291 293 294 293 292 292 294 293 290 289 287 286
293 292 295 295 296 295 295 294 294 295 296 295 296 296 294 296 299 299 299 298 299 300 299 302 303 302 296 292 292 290 288 288 289 289 288 289 289 290 290 289 288 287 286 285
295 296 296 296 297 296 296 294 294 296 296 294 296 297 295 292 295 296 299 299 294 297 299 303 303 294 290 290 289 288 287 286 285 285 285 285 286 286 288 287 286 284 282 281
297 297 295 297 296 298 295 295 297 297 293 292 295 299 294 297 297 296 299 300 295 294 297 301 294 290 288 288 288 286 285 284 282 282 281 282 283 282 282 283 282 281 280 279
297 298 299 297 295 296 294 296 296 293 293 293 293 298 296 293 295 295 297 294 298 300 298 296 289 288 287 286 285 285 284 282 278 278 279 278 278 278 279 279 280 279 278 277
295 295 296 295 289 292 296 297 297 295 293 292 295 296 295 297 295 298 294 299 299 295 289 284 287 287 285 285 285 283 281 278 276 274 273 273 274 275 275 277 277 277 276 275
289 286 293 294 296 295 294 295 295 292 294 295 296 294 290 297 291 298 298 298 294 283 282 282 282 283 282 282 281 279 277 276 275 275 274 275 274 274 273 274 274 274 274 274
286 285 287 289 290 289 289 290 289 290 296 298 296 298 291 292 297 292 288 281 281 284 281 280 279 280 281 276 277 278 278 276 276 275 275 274 274 274 273 271 272 272 272 272
Wind_Speed
6 6 7 8 8 7 3 2 2 2 6 2 2 2 3 4 8 10 10 7 9 12 13 10 12 9 2 8 8 8 5 1 3 2 4 1 4 4 3 3 4 2 3 5
7 6 7 8 7 4 1 1 2 4 4 1 2 4 6 7 12 6 3 4 7 8 6 5 7 4 0 6 6 5 4 2 2 2 4 7 5 2 4 4 4 5 5 5
7 7 8 8 6 3 4 2 2 3 0 3 2 2 5 4 5 11 10 6 9 13 9 8 10 2 1 3 3 13 3 3 4 3 2 2 2 1 4 0 1 3 5 15
8 8 9 8 9 5 7 1 3 3 3 3 3 3 6 12 7 4 10 4 8 3 5 13 8 1 2 2 6 5 3 3 1 3 5 3 4 7 3 6 9 6 12 15
9 8 8 9 7 7 4 3 1 2 3 4 3 3 4 10 12 8 7 6 9 9 5 2 4 1 3 3 2 3 4 2 2 4 4 4 8 10 11 11 13 13 17 20
10 11 12 11 8 11 3 5 2 2 4 2 0 4 5 7 8 6 3 5 7 8 10 7 5 3 4 5 4 4 2 3 2 4 1 5 9 10 10 7 10 8 14 16
12 13 13 12 12 13 10 5 3 2 3 4 4 8 13 14 14 6 11 8 7 4 5 4 3 4 8 7 10 9 6 4 3 3 1 7 5 8 9 12 15 15 16 12
14 14 13 15 14 14 17 10 5 2 3 5 8 8 8 9 7 4 4 3 4 7 5 4 5 4 3 5 8 9 10 3 1 2 5 10 13 8 2 6 11 12 8 5
14 15 13 14 14 14 19 15 14 3 3 4 5 5 7 3 4 5 4 6 8 4 2 3 1 3 2 5 7 4 9 9 7 3 4 5 4 4 4 3 10 3 1 1
15 14 13 14 13 15 18 9 19 4 3 4 4 2 3 3 2 3 4 7 6 4 2 1 2 3 3 3 3 3 3 3 13 9 3 7 8 7 5 1 5 9 2 1
16 13 12 11 13 14 18 11 15 13 2 6 5 3 3 3 1 2 4 5 3 3 4 2 2 2 2 3 6 5 3 2 2 3 3 7 2 5 1 2 11 5 0 1
17 14 13 9 12 14 17 8 13 22 5 5 13 19 21 19 17 3 3 3 2 1 2 1 2 3 3 2 3 1 3 3 1 5 4 3 4 4 6 5 5 4 1 1
19 16 16 13 14 15 16 11 9 8 2 5 5 9 25 19 27 23 3 2 3 2 2 1 1 5 2 2 2 4 3 3 1 2 2 9 9 9 3 4 4 8 4 7
17 17 17 15 17 17 14 15 14 10 2 3 5 8 11 10 9 19 25 13 2 2 2 2 2 3 3 2 5 7 3 6 7 2 3 9 6 9 10 10 4 3 8 10
18 18 19 17 17 18 18 18 19 19 4 2 4 15 31 20 26 22 21 13 4 2 2 3 2 3 2 2 2 3 2 5 3 3 6 5 10 15 10 9 10 8 7 9
21 18 19 19 19 16 12 4 18 23 22 2 3 5 5 15 11 11 11 11 3 3 3 3 3 4 2 3 2 4 11 13 10 4 3 5 7 10 9 9 9 9 11 8
22 20 20 19 18 19 5 3 2 27 22 2 4 4 4 3 6 2 2 7 3 3 2 4 3 3 2 2 3 10 13 12 13 17 7 5 11 5 6 7 10 10 12 11
24 21 20 20 19 17 12 6 4 25 6 2 3 4 3 5 2 2 3 3 3 3 3 2 3 2 2 3 3 8 13 13 13 16 13 10 10 8 3 5 6 8 7 6
24 21 19 15 11 6 11 7 15 19 3 4 3 2 3 1 2 1 2 2 2 2 3 3 3 3 2 5 6 8 9 8 11 12 10 13 13 14 12 8 5 6 5 6
22 18 8 3 9 21 24 8 2 3 3 3 4 3 3 1 1 2 1 2 2 2 3 3 2 2 7 8 6 6 8 10 11 9 12 13 12 12 12 9 6 5 5 5
13 4 3 15 34 8 2 3 3 2 2 4 4 8 2 2 2 2 2 1 1 0 2 2 2 2 3 7 7 7 8 8 9 8 9 9 9 9 8 6 5 5 5 6
16 15 21 13 3 3 4 4 3 5 5 4 5 4 5 3 2 2 1 1 1 3 1 3 3 2 5 6 7 7 6 7 8 11 9 10 10 12 9 6 5 6 7 9
25 5 4 4 2 5 7 8 4 4 3 4 4 3 4 1 1 2 2 2 4 1 1 0 2 2 3 4 4 6 7 9 10 9 11 11 10 12 11 8 7 6 8 9
3 5 7 4 5 5 4 3 4 4 2 5 3 3 2 1 2 2 3 3 1 2 2 2 1 3 3 4 3 4 6 7 6 8 10 10 10 9 12 11 8 7 9 11
3 3 5 5 3 2 2 2 3 2 1 3 3 2 2 2 3 1 2 3 3 1 3 2 0 2 3 3 4 3 3 4 5 7 7 10 10 10 12 12 10 11 13 14
3 5 2 1 3 2 2 2 2 3 0 1 2 3 3 1 4 3 2 2 3 2 1 1 0 1 3 2 3 1 2 2 4 7 7 9 10 10 10 13 14 13 15 16
3 3 3 2 4 4 2 3 3 4 0 2 2 4 5 1 2 2 3 3 2 1 1 1 1 1 1 2 2 1 2 2 3 5 7 7 7 9 12 10 12 15 16 18
Wind_Direction
293 289 285 312 327 331 3 30 4 158 360 27 220 228 235 299 303 303 299 288 281 273 288 280 268 248 328 343 341 340 335 94 305 280 306 156 131 123 104 146 360 297 241 269
269 281 288 297 308 307 145 83 283 13 149 147 273 275 283 287 289 273 276 272 266 290 285 319 273 238 72 345 344 332 318 312 340 320 32 17 47 72 56 149 154 231 286 279
242 265 275 290 290 276 174 87 359 314 149 173 215 284 278 269 267 269 256 253 276 271 263 251 273 244 94 338 314 301 295 239 175 220 113 166 250 305 330 184 183 276 250 291
248 265 272 275 269 220 172 109 236 215 286 301 268 319 288 287 283 266 258 269 235 293 245 262 257 199 354 282 342 5 36 280 223 250 232 246 260 285 248 227 237 225 263 261
252 265 266 259 269 196 175 147 189 317 268 285 276 275 260 274 291 261 269 248 312 305 256 224 269 199 155 220 354 17 341 282 337 284 239 247 275 267 252 240 246 254 262 262
253 257 265 254 240 185 174 204 196 121 259 263 260 245 254 302 283 262 298 293 285 280 257 232 236 238 236 222 192 189 211 205 174 261 53 314 281 245 219 238 245 232 254 246
250 255 261 241 228 214 194 178 153 215 268 223 231 269 279 300 289 266 288 243 246 282 293 301 310 284 252 235 236 196 193 175 166 230 127 260 235 321 283 264 261 276 241 247
247 253 257 237 227 220 216 197 161 186 260 248 287 329 327 310 311 338 316 301 281 307 12 25 338 312 301 260 231 213 205 159 265 181 211 275 297 295 345 354 299 293 208 156
249 255 257 240 232 224 215 212 198 172 260 241 236 295 282 302 314 333 307 317 316 22 72 69 277 277 326 304 316 162 174 200 208 163 201 244 215 142 108 50 282 288 67 173
248 251 255 240 227 209 208 216 214 183 250 258 195 224 314 342 354 289 314 317 338 34 46 112 242 265 236 257 252 241 227 205 206 202 227 274 259 279 360 116 311 287 196 266
240 246 246 236 218 205 210 220 214 198 238 269 238 265 236 319 249 242 292 352 305 359 3 27 303 259 307 308 275 295 300 252 161 146 177 263 329 303 161 15 258 271 187 246
234 240 240 241 219 214 207 216 220 217 214 257 283 282 267 245 237 213 248 217 262 231 97 17 284 289 293 303 310 297 281 284 252 180 210 322 316 257 162 257 265 293 283 252
234 241 234 235 228 228 208 207 199 205 242 284 265 253 272 266 249 231 220 261 241 193 191 213 267 274 294 291 290 282 286 286 302 263 22 333 324 314 254 217 249 306 9 62
239 234 236 241 232 224 217 224 219 201 267 264 281 301 283 282 272 228 224 232 219 68 107 235 211 255 217 273 282 295 264 314 331 342 3 322 326 304 291 296 335 139 54 62
237 234 232 236 235 228 221 231 228 218 194 259 284 298 285 273 252 234 228 208 172 166 221 233 235 254 273 238 273 264 233 11 332 291 277 252 259 275 342 46 38 64 85 62
236 233 229 231 229 219 223 215 231 220 213 268 294 276 269 264 232 201 184 192 177 177 173 224 230 260 250 264 257 351 359 340 326 288 134 288 354 60 64 75 70 65 73 70
237 236 231 227 224 211 195 198 242 199 190 235 281 284 266 253 188 181 160 166 181 158 181 218 224 256 187 268 268 348 354 341 9 13 351 4 17 33 59 87 87 73 73 68
233 230 225 221 217 231 201 215 219 166 152 185 260 269 309 178 158 168 172 155 157 181 203 212 215 229 211 237 60 14 359 351 14 1 11 8 12 21 74 81 79 66 58 54
232 220 213 210 208 203 168 182 168 164 184 193 213 235 258 265 116 145 209 181 175 176 199 210 184 194 233 65 48 34 13 10 336 343 21 10 11 356 4 11 49 74 76 73
216 176 168 188 179 139 141 144 156 188 193 240 218 181 260 222 103 209 231 188 187 197 211 142 228 98 80 64 58 40 15 1 1 357 4 357 358 353 357 12 34 61 83 97
159 152 164 138 133 104 166 185 190 213 224 211 225 200 185 254 158 200 203 291 81 251 250 196 213 116 73 38 32 42 20 11 6 1 352 351 344 342 350 1 26 68 84 85
159 125 125 144 118 153 162 183 200 201 223 197 188 205 190 268 116 106 233 182 22 248 192 224 153 87 41 29 8 16 27 14 7 5 352 351 351 350 354 4 28 49 79 96
123 102 147 151 171 170 185 183 195 199 205 186 171 173 160 174 102 82 116 187 233 22 35 251 67 87 40 9 356 358 23 21 3 360 4 2 358 11 15 14 30 68 85 101
122 154 139 181 183 214 188 184 169 218 199 150 123 128 144 132 76 125 159 242 266 250 245 192 106 23 10 6 27 10 360 8 360 360 3 13 8 10 24 30 41 78 83 98
92 108 160 186 208 116 126 114 121 12 130 131 92 73 75 62 99 199 137 189 238 206 222 201 54 10 352 359 13 21 17 354 357 360 6 10 21 32 35 43 59 88 99 99
55 34 100 145 92 60 42 39 87 4 49 152 56 109 64 161 143 164 181 197 229 242 202 230 324 358 359 339 12 84 78 31 18 33 34 42 44 52 58 65 70 83 99 97
53 23 13 15 61 61 38 23 351 316 286 123 127 157 203 182 107 121 17 173 247 189 278 291 252 223 325 301 5 58 121 127 105 76 65 69 76 79 72 61 67 86 95 103